station,date_time,longitude_east,latitude_north,depth,sw_sal,sw_sal_result_value_qualifier,sea_water_temperature,sea_water_temperature_result_value_qualifier,sea_water_pressure,sea_water_pressure_result_value_qualifier,KD_PAR,KD_PAR_result_value_qualifier
CH3-4,2017-01-28T22:15:00Z,-79.11,54.05,1.20,2.28,,-0.41,,, NC,, NC
CH3-4,2017-01-28T22:30:00Z,-79.11,54.05,1.20,2.26,,-0.41,,, NC,, NC
CH3-4,2017-01-28T22:45:00Z,-79.11,54.05,1.20,2.13,,-0.45,,, NC,, NC
CH3-4,2017-01-28T23:00:00Z,-79.11,54.05,1.20,2.12,,-0.45,,, NC,, NC
CH3-4,2017-01-28T23:15:00Z,-79.11,54.05,1.20,2.11,,-0.45,,, NC,, NC
CH3-4,2017-01-28T23:30:00Z,-79.11,54.05,1.20,2.15,,-0.45,,, NC,, NC
CH3-4,2017-01-28T23:45:00Z,-79.11,54.05,1.20,2.13,,-0.45,,, NC,, NC
CH3-4,2017-01-29T00:00:00Z,-79.11,54.05,1.20,2.13,,-0.46,,, NC,, NC
CH3-4,2017-01-29T00:15:00Z,-79.11,54.05,1.20,2.14,,-0.45,,, NC,, NC
CH3-4,2017-01-29T00:30:00Z,-79.11,54.05,1.20,2.15,,-0.45,,, NC,, NC
CH3-4,2017-01-29T00:45:00Z,-79.11,54.05,1.20,2.13,,-0.45,,, NC,, NC
CH3-4,2017-01-29T01:00:00Z,-79.11,54.05,1.20,2.13,,-0.45,,, NC,, NC
CH3-4,2017-01-29T01:15:00Z,-79.11,54.05,1.20,2.13,,-0.46,,, NC,, NC
CH3-4,2017-01-29T01:30:00Z,-79.11,54.05,1.20,2.12,,-0.45,,, NC,, NC
CH3-4,2017-01-29T01:45:00Z,-79.11,54.05,1.20,2.10,,-0.44,,, NC,, NC
CH3-4,2017-01-29T02:00:00Z,-79.11,54.05,1.20,2.10,,-0.45,,, NC,, NC
CH3-4,2017-01-29T02:15:00Z,-79.11,54.05,1.20,2.11,,-0.45,,, NC,, NC
CH3-4,2017-01-29T02:30:00Z,-79.11,54.05,1.20,2.09,,-0.45,,, NC,, NC
CH3-4,2017-01-29T02:45:00Z,-79.11,54.05,1.20,2.10,,-0.45,,, NC,, NC
CH3-4,2017-01-29T03:00:00Z,-79.11,54.05,1.20,2.10,,-0.45,,, NC,, NC
CH3-4,2017-01-29T03:15:00Z,-79.11,54.05,1.20,2.11,,-0.45,,, NC,, NC
CH3-4,2017-01-29T03:30:00Z,-79.11,54.05,1.20,2.13,,-0.45,,, NC,, NC
CH3-4,2017-01-29T03:45:00Z,-79.11,54.05,1.20,2.13,,-0.45,,, NC,, NC
CH3-4,2017-01-29T04:00:00Z,-79.11,54.05,1.20,2.14,,-0.45,,, NC,, NC
CH3-4,2017-01-29T04:15:00Z,-79.11,54.05,1.20,2.14,,-0.45,,, NC,, NC
CH3-4,2017-01-29T04:30:00Z,-79.11,54.05,1.20,2.15,,-0.46,,, NC,, NC
CH3-4,2017-01-29T04:45:00Z,-79.11,54.05,1.20,2.16,,-0.45,,, NC,, NC
CH3-4,2017-01-29T05:00:00Z,-79.11,54.05,1.20,2.16,,-0.42,,, NC,, NC
CH3-4,2017-01-29T05:15:00Z,-79.11,54.05,1.20,2.17,,-0.41,,, NC,, NC
CH3-4,2017-01-29T05:30:00Z,-79.11,54.05,1.20,2.17,,-0.42,,, NC,, NC
CH3-4,2017-01-29T05:45:00Z,-79.11,54.05,1.20,2.18,,-0.44,,, NC,, NC
CH3-4,2017-01-29T06:00:00Z,-79.11,54.05,1.20,2.17,,-0.44,,, NC,, NC
CH3-4,2017-01-29T06:15:00Z,-79.11,54.05,1.20,2.19,,-0.44,,, NC,, NC
CH3-4,2017-01-29T06:30:00Z,-79.11,54.05,1.20,2.18,,-0.44,,, NC,, NC
CH3-4,2017-01-29T06:45:00Z,-79.11,54.05,1.20,2.18,,-0.45,,, NC,, NC
CH3-4,2017-01-29T07:00:00Z,-79.11,54.05,1.20,2.18,,-0.42,,, NC,, NC
CH3-4,2017-01-29T07:15:00Z,-79.11,54.05,1.20,2.18,,-0.44,,, NC,, NC
CH3-4,2017-01-29T07:30:00Z,-79.11,54.05,1.20,2.17,,-0.42,,, NC,, NC
CH3-4,2017-01-29T07:45:00Z,-79.11,54.05,1.20,2.17,,-0.42,,, NC,, NC
CH3-4,2017-01-29T08:00:00Z,-79.11,54.05,1.20,2.17,,-0.42,,, NC,, NC
CH3-4,2017-01-29T08:15:00Z,-79.11,54.05,1.20,2.17,,-0.42,,, NC,, NC
CH3-4,2017-01-29T08:30:00Z,-79.11,54.05,1.20,2.17,,-0.42,,, NC,, NC
CH3-4,2017-01-29T08:45:00Z,-79.11,54.05,1.20,2.17,,-0.42,,, NC,, NC
CH3-4,2017-01-29T09:00:00Z,-79.11,54.05,1.20,2.17,,-0.42,,, NC,, NC
CH3-4,2017-01-29T09:15:00Z,-79.11,54.05,1.20,2.18,,-0.44,,, NC,, NC
CH3-4,2017-01-29T09:30:00Z,-79.11,54.05,1.20,2.19,,-0.44,,, NC,, NC
CH3-4,2017-01-29T09:45:00Z,-79.11,54.05,1.20,2.20,,-0.42,,, NC,, NC
CH3-4,2017-01-29T10:00:00Z,-79.11,54.05,1.20,2.19,,-0.42,,, NC,, NC
CH3-4,2017-01-29T10:15:00Z,-79.11,54.05,1.20,2.24,,-0.42,,, NC,, NC
CH3-4,2017-01-29T10:30:00Z,-79.11,54.05,1.20,2.30,,-0.42,,, NC,, NC
CH3-4,2017-01-29T10:45:00Z,-79.11,54.05,1.20,2.21,,-0.44,,, NC,, NC
CH3-4,2017-01-29T11:00:00Z,-79.11,54.05,1.20,2.14,,-0.45,,, NC,, NC
CH3-4,2017-01-29T11:15:00Z,-79.11,54.05,1.20,2.14,,-0.45,,, NC,, NC
CH3-4,2017-01-29T11:30:00Z,-79.11,54.05,1.20,2.13,,-0.45,,, NC,, NC
CH3-4,2017-01-29T11:45:00Z,-79.11,54.05,1.20,2.16,,-0.45,,, NC,, NC
CH3-4,2017-01-29T12:00:00Z,-79.11,54.05,1.20,2.16,,-0.45,,, NC,, NC
CH3-4,2017-01-29T12:15:00Z,-79.11,54.05,1.20,2.18,,-0.46,,, NC,, NC
CH3-4,2017-01-29T12:30:00Z,-79.11,54.05,1.20,2.18,,-0.45,,, NC,, NC
CH3-4,2017-01-29T12:45:00Z,-79.11,54.05,1.20,2.15,,-0.45,,, NC,, NC
CH3-4,2017-01-29T13:00:00Z,-79.11,54.05,1.20,2.16,,-0.45,,, NC,, NC
CH3-4,2017-01-29T13:15:00Z,-79.11,54.05,1.20,2.16,,-0.45,,, NC,, NC
CH3-4,2017-01-29T13:30:00Z,-79.11,54.05,1.20,2.15,,-0.46,,, NC,, NC
CH3-4,2017-01-29T13:45:00Z,-79.11,54.05,1.20,2.16,,-0.46,,, NC,, NC
CH3-4,2017-01-29T14:00:00Z,-79.11,54.05,1.20,2.16,,-0.45,,, NC,, NC
CH3-4,2017-01-29T14:15:00Z,-79.11,54.05,1.20,2.14,,-0.45,,, NC,, NC
CH3-4,2017-01-29T14:30:00Z,-79.11,54.05,1.20,2.17,,-0.45,,, NC,, NC
CH3-4,2017-01-29T14:45:00Z,-79.11,54.05,1.20,2.16,,-0.45,,, NC,, NC
CH3-4,2017-01-29T15:00:00Z,-79.11,54.05,1.20,2.17,,-0.44,,, NC,, NC
CH3-4,2017-01-29T15:15:00Z,-79.11,54.05,1.20,2.16,,-0.44,,, NC,, NC
CH3-4,2017-01-29T15:30:00Z,-79.11,54.05,1.20,2.16,,-0.46,,, NC,, NC
CH3-4,2017-01-29T15:45:00Z,-79.11,54.05,1.20,2.16,,-0.45,,, NC,, NC
CH3-4,2017-01-29T16:00:00Z,-79.11,54.05,1.20,2.17,,-0.45,,, NC,, NC
CH3-4,2017-01-29T16:15:00Z,-79.11,54.05,1.20,2.19,,-0.45,,, NC,, NC
CH3-4,2017-01-29T16:30:00Z,-79.11,54.05,1.20,2.20,,-0.44,,, NC,, NC
CH3-4,2017-01-29T16:45:00Z,-79.11,54.05,1.20,2.21,,-0.45,,, NC,, NC
CH3-4,2017-01-29T17:00:00Z,-79.11,54.05,1.20,2.21,,-0.45,,, NC,, NC
CH3-4,2017-01-29T17:15:00Z,-79.11,54.05,1.20,2.20,,-0.41,,, NC,, NC
CH3-4,2017-01-29T17:30:00Z,-79.11,54.05,1.20,2.20,,-0.44,,, NC,, NC
CH3-4,2017-01-29T17:45:00Z,-79.11,54.05,1.20,2.21,,-0.44,,, NC,, NC
CH3-4,2017-01-29T18:00:00Z,-79.11,54.05,1.20,2.22,,-0.45,,, NC,, NC
CH3-4,2017-01-29T18:15:00Z,-79.11,54.05,1.20,2.23,,-0.44,,, NC,, NC
CH3-4,2017-01-29T18:30:00Z,-79.11,54.05,1.20,2.24,,-0.45,,, NC,, NC
CH3-4,2017-01-29T18:45:00Z,-79.11,54.05,1.20,2.25,,-0.41,,, NC,, NC
CH3-4,2017-01-29T19:00:00Z,-79.11,54.05,1.20,2.24,,-0.42,,, NC,, NC
CH3-4,2017-01-29T19:15:00Z,-79.11,54.05,1.20,2.25,,-0.44,,, NC,, NC
CH3-4,2017-01-29T19:30:00Z,-79.11,54.05,1.20,2.25,,-0.44,,, NC,, NC
CH3-4,2017-01-29T19:45:00Z,-79.11,54.05,1.20,2.26,,-0.44,,, NC,, NC
CH3-4,2017-01-29T20:00:00Z,-79.11,54.05,1.20,2.26,,-0.41,,, NC,, NC
CH3-4,2017-01-29T20:15:00Z,-79.11,54.05,1.20,2.25,,-0.40,,, NC,, NC
CH3-4,2017-01-29T20:30:00Z,-79.11,54.05,1.20,2.26,,-0.39,,, NC,, NC
CH3-4,2017-01-29T20:45:00Z,-79.11,54.05,1.20,2.25,,-0.39,,, NC,, NC
CH3-4,2017-01-29T21:00:00Z,-79.11,54.05,1.20,2.26,,-0.40,,, NC,, NC
CH3-4,2017-01-29T21:15:00Z,-79.11,54.05,1.20,2.25,,-0.40,,, NC,, NC
CH3-4,2017-01-29T21:30:00Z,-79.11,54.05,1.20,2.24,,-0.42,,, NC,, NC
CH3-4,2017-01-29T21:45:00Z,-79.11,54.05,1.20,2.24,,-0.40,,, NC,, NC
CH3-4,2017-01-29T22:00:00Z,-79.11,54.05,1.20,2.25,,-0.42,,, NC,, NC
CH3-4,2017-01-29T22:15:00Z,-79.11,54.05,1.20,2.29,,-0.39,,, NC,, NC
CH3-4,2017-01-29T22:30:00Z,-79.11,54.05,1.20,2.36,,-0.41,,, NC,, NC
CH3-4,2017-01-29T22:45:00Z,-79.11,54.05,1.20,2.37,,-0.40,,, NC,, NC
CH3-4,2017-01-29T23:00:00Z,-79.11,54.05,1.20,2.41,,-0.39,,, NC,, NC
CH3-4,2017-01-29T23:15:00Z,-79.11,54.05,1.20,2.20,,-0.42,,, NC,, NC
CH3-4,2017-01-29T23:30:00Z,-79.11,54.05,1.20,2.15,,-0.45,,, NC,, NC
CH3-4,2017-01-29T23:45:00Z,-79.11,54.05,1.20,2.25,,-0.45,,, NC,, NC
CH3-4,2017-01-30T00:00:00Z,-79.11,54.05,1.20,2.21,,-0.45,,, NC,, NC
CH3-4,2017-01-30T00:15:00Z,-79.11,54.05,1.20,2.21,,-0.45,,, NC,, NC
CH3-4,2017-01-30T00:30:00Z,-79.11,54.05,1.20,2.24,,-0.45,,, NC,, NC
CH3-4,2017-01-30T00:45:00Z,-79.11,54.05,1.20,2.25,,-0.45,,, NC,, NC
CH3-4,2017-01-30T01:00:00Z,-79.11,54.05,1.20,2.27,,-0.45,,, NC,, NC
CH3-4,2017-01-30T01:15:00Z,-79.11,54.05,1.20,2.24,,-0.45,,, NC,, NC
CH3-4,2017-01-30T01:30:00Z,-79.11,54.05,1.20,2.23,,-0.45,,, NC,, NC
CH3-4,2017-01-30T01:45:00Z,-79.11,54.05,1.20,2.21,,-0.45,,, NC,, NC
CH3-4,2017-01-30T02:00:00Z,-79.11,54.05,1.20,2.19,,-0.45,,, NC,, NC
CH3-4,2017-01-30T02:15:00Z,-79.11,54.05,1.20,2.20,,-0.46,,, NC,, NC
CH3-4,2017-01-30T02:30:00Z,-79.11,54.05,1.20,2.18,,-0.45,,, NC,, NC
CH3-4,2017-01-30T02:45:00Z,-79.11,54.05,1.20,2.21,,-0.46,,, NC,, NC
CH3-4,2017-01-30T03:00:00Z,-79.11,54.05,1.20,2.20,,-0.44,,, NC,, NC
CH3-4,2017-01-30T03:15:00Z,-79.11,54.05,1.20,2.20,,-0.45,,, NC,, NC
CH3-4,2017-01-30T03:30:00Z,-79.11,54.05,1.20,2.22,,-0.46,,, NC,, NC
CH3-4,2017-01-30T03:45:00Z,-79.11,54.05,1.20,2.20,,-0.45,,, NC,, NC
CH3-4,2017-01-30T04:00:00Z,-79.11,54.05,1.20,2.20,,-0.45,,, NC,, NC
CH3-4,2017-01-30T04:15:00Z,-79.11,54.05,1.20,2.22,,-0.46,,, NC,, NC
CH3-4,2017-01-30T04:30:00Z,-79.11,54.05,1.20,2.23,,-0.45,,, NC,, NC
CH3-4,2017-01-30T04:45:00Z,-79.11,54.05,1.20,2.25,,-0.45,,, NC,, NC
CH3-4,2017-01-30T05:00:00Z,-79.11,54.05,1.20,2.26,,-0.45,,, NC,, NC
CH3-4,2017-01-30T05:15:00Z,-79.11,54.05,1.20,2.26,,-0.45,,, NC,, NC
CH3-4,2017-01-30T05:30:00Z,-79.11,54.05,1.20,2.25,,-0.42,,, NC,, NC
CH3-4,2017-01-30T05:45:00Z,-79.11,54.05,1.20,2.26,,-0.41,,, NC,, NC
CH3-4,2017-01-30T06:00:00Z,-79.11,54.05,1.20,2.27,,-0.44,,, NC,, NC
CH3-4,2017-01-30T06:15:00Z,-79.11,54.05,1.20,2.29,,-0.44,,, NC,, NC
CH3-4,2017-01-30T06:30:00Z,-79.11,54.05,1.20,2.30,,-0.42,,, NC,, NC
CH3-4,2017-01-30T06:45:00Z,-79.11,54.05,1.20,2.30,,-0.45,,, NC,, NC
CH3-4,2017-01-30T07:00:00Z,-79.11,54.05,1.20,2.31,,-0.45,,, NC,, NC
CH3-4,2017-01-30T07:15:00Z,-79.11,54.05,1.20,2.30,,-0.44,,, NC,, NC
CH3-4,2017-01-30T07:30:00Z,-79.11,54.05,1.20,2.32,,-0.39,,, NC,, NC
CH3-4,2017-01-30T07:45:00Z,-79.11,54.05,1.20,2.31,,-0.41,,, NC,, NC
CH3-4,2017-01-30T08:00:00Z,-79.11,54.05,1.20,2.32,,-0.44,,, NC,, NC
CH3-4,2017-01-30T08:15:00Z,-79.11,54.05,1.20,2.33,,-0.44,,, NC,, NC
CH3-4,2017-01-30T08:30:00Z,-79.11,54.05,1.20,2.33,,-0.44,,, NC,, NC
CH3-4,2017-01-30T08:45:00Z,-79.11,54.05,1.20,2.32,,-0.44,,, NC,, NC
CH3-4,2017-01-30T09:00:00Z,-79.11,54.05,1.20,2.30,,-0.42,,, NC,, NC
CH3-4,2017-01-30T09:15:00Z,-79.11,54.05,1.20,2.31,,-0.42,,, NC,, NC
CH3-4,2017-01-30T09:30:00Z,-79.11,54.05,1.20,2.29,,-0.42,,, NC,, NC
CH3-4,2017-01-30T09:45:00Z,-79.11,54.05,1.20,2.29,,-0.42,,, NC,, NC
CH3-4,2017-01-30T10:00:00Z,-79.11,54.05,1.20,2.28,,-0.44,,, NC,, NC
CH3-4,2017-01-30T10:15:00Z,-79.11,54.05,1.20,2.30,,-0.44,,, NC,, NC
CH3-4,2017-01-30T10:30:00Z,-79.11,54.05,1.20,2.33,,-0.41,,, NC,, NC
CH3-4,2017-01-30T10:45:00Z,-79.11,54.05,1.20,2.43,,-0.41,,, NC,, NC
CH3-4,2017-01-30T11:00:00Z,-79.11,54.05,1.20,2.46,,-0.44,,, NC,, NC
CH3-4,2017-01-30T11:15:00Z,-79.11,54.05,1.20,2.46,,-0.42,,, NC,, NC
CH3-4,2017-01-30T11:30:00Z,-79.11,54.05,1.20,2.25,,-0.45,,, NC,, NC
CH3-4,2017-01-30T11:45:00Z,-79.11,54.05,1.20,2.26,,-0.44,,, NC,, NC
CH3-4,2017-01-30T12:00:00Z,-79.11,54.05,1.20,2.27,,-0.44,,, NC,, NC
CH3-4,2017-01-30T12:15:00Z,-79.11,54.05,1.20,2.29,,-0.45,,, NC,, NC
CH3-4,2017-01-30T12:30:00Z,-79.11,54.05,1.20,2.27,,-0.46,,, NC,, NC
CH3-4,2017-01-30T12:45:00Z,-79.11,54.05,1.20,2.31,,-0.46,,, NC,, NC
CH3-4,2017-01-30T13:00:00Z,-79.11,54.05,1.20,2.31,,-0.46,,, NC,, NC
CH3-4,2017-01-30T13:15:00Z,-79.11,54.05,1.20,2.31,,-0.46,,, NC,, NC
CH3-4,2017-01-30T13:30:00Z,-79.11,54.05,1.20,2.29,,-0.46,,, NC,, NC
CH3-4,2017-01-30T13:45:00Z,-79.11,54.05,1.20,2.29,,-0.46,,, NC,, NC
CH3-4,2017-01-30T14:00:00Z,-79.11,54.05,1.20,2.29,,-0.45,,, NC,, NC
CH3-4,2017-01-30T14:15:00Z,-79.11,54.05,1.20,2.27,,-0.45,,, NC,, NC
CH3-4,2017-01-30T14:30:00Z,-79.11,54.05,1.20,2.25,,-0.45,,, NC,, NC
CH3-4,2017-01-30T14:45:00Z,-79.11,54.05,1.20,2.24,,-0.46,,, NC,, NC
CH3-4,2017-01-30T15:00:00Z,-79.11,54.05,1.20,2.25,,-0.45,,, NC,, NC
CH3-4,2017-01-30T15:15:00Z,-79.11,54.05,1.20,2.25,,-0.45,,, NC,, NC
CH3-4,2017-01-30T15:30:00Z,-79.11,54.05,1.20,2.25,,-0.46,,, NC,, NC
CH3-4,2017-01-30T15:45:00Z,-79.11,54.05,1.20,2.25,,-0.46,,, NC,, NC
CH3-4,2017-01-30T16:00:00Z,-79.11,54.05,1.20,2.26,,-0.46,,, NC,, NC
CH3-4,2017-01-30T16:15:00Z,-79.11,54.05,1.20,2.29,,-0.46,,, NC,, NC
CH3-4,2017-01-30T16:30:00Z,-79.11,54.05,1.20,2.28,,-0.45,,, NC,, NC
CH3-4,2017-01-30T16:45:00Z,-79.11,54.05,1.20,2.29,,-0.45,,, NC,, NC
CH3-4,2017-01-30T17:00:00Z,-79.11,54.05,1.20,2.29,,-0.45,,, NC,, NC
CH3-4,2017-01-30T17:15:00Z,-79.11,54.05,1.20,2.30,,-0.46,,, NC,, NC
CH3-4,2017-01-30T17:30:00Z,-79.11,54.05,1.20,2.31,,-0.45,,, NC,, NC
CH3-4,2017-01-30T17:45:00Z,-79.11,54.05,1.20,2.32,,-0.45,,, NC,, NC
CH3-4,2017-01-30T18:00:00Z,-79.11,54.05,1.20,2.34,,-0.42,,, NC,, NC
CH3-4,2017-01-30T18:15:00Z,-79.11,54.05,1.20,2.35,,-0.41,,, NC,, NC
CH3-4,2017-01-30T18:30:00Z,-79.11,54.05,1.20,2.38,,-0.44,,, NC,, NC
CH3-4,2017-01-30T18:45:00Z,-79.11,54.05,1.20,2.38,,-0.42,,, NC,, NC
CH3-4,2017-01-30T19:00:00Z,-79.11,54.05,1.20,2.39,,-0.44,,, NC,, NC
CH3-4,2017-01-30T19:15:00Z,-79.11,54.05,1.20,2.40,,-0.41,,, NC,, NC
CH3-4,2017-01-30T19:30:00Z,-79.11,54.05,1.20,2.41,,-0.40,,, NC,, NC
CH3-4,2017-01-30T19:45:00Z,-79.11,54.05,1.20,2.41,,-0.40,,, NC,, NC
CH3-4,2017-01-30T20:00:00Z,-79.11,54.05,1.20,2.42,,-0.38,,, NC,, NC
CH3-4,2017-01-30T20:15:00Z,-79.11,54.05,1.20,2.43,,-0.36,,, NC,, NC
CH3-4,2017-01-30T20:30:00Z,-79.11,54.05,1.20,2.44,,-0.36,,, NC,, NC
CH3-4,2017-01-30T20:45:00Z,-79.11,54.05,1.20,2.45,,-0.38,,, NC,, NC
CH3-4,2017-01-30T21:00:00Z,-79.11,54.05,1.20,2.46,,-0.36,,, NC,, NC
CH3-4,2017-01-30T21:15:00Z,-79.11,54.05,1.20,2.46,,-0.38,,, NC,, NC
CH3-4,2017-01-30T21:30:00Z,-79.11,54.05,1.20,2.45,,-0.38,,, NC,, NC
CH3-4,2017-01-30T21:45:00Z,-79.11,54.05,1.20,2.43,,-0.39,,, NC,, NC
CH3-4,2017-01-30T22:00:00Z,-79.11,54.05,1.20,2.43,,-0.40,,, NC,, NC
CH3-4,2017-01-30T22:15:00Z,-79.11,54.05,1.20,2.41,,-0.40,,, NC,, NC
CH3-4,2017-01-30T22:30:00Z,-79.11,54.05,1.20,2.41,,-0.41,,, NC,, NC
CH3-4,2017-01-30T22:45:00Z,-79.11,54.05,1.20,2.37,,-0.41,,, NC,, NC
CH3-4,2017-01-30T23:00:00Z,-79.11,54.05,1.20,2.43,,-0.40,,, NC,, NC
CH3-4,2017-01-30T23:15:00Z,-79.11,54.05,1.20,2.56,,-0.41,,, NC,, NC
CH3-4,2017-01-30T23:30:00Z,-79.11,54.05,1.20,2.59,,-0.41,,, NC,, NC
CH3-4,2017-01-30T23:45:00Z,-79.11,54.05,1.20,2.58,,-0.44,,, NC,, NC
CH3-4,2017-01-31T00:00:00Z,-79.11,54.05,1.20,2.34,,-0.41,,, NC,, NC
CH3-4,2017-01-31T00:15:00Z,-79.11,54.05,1.20,2.29,,-0.45,,, NC,, NC
CH3-4,2017-01-31T00:30:00Z,-79.11,54.05,1.20,2.27,,-0.46,,, NC,, NC
CH3-4,2017-01-31T00:45:00Z,-79.11,54.05,1.20,2.31,,-0.45,,, NC,, NC
CH3-4,2017-01-31T01:00:00Z,-79.11,54.05,1.20,2.31,,-0.46,,, NC,, NC
CH3-4,2017-01-31T01:15:00Z,-79.11,54.05,1.20,2.32,,-0.45,,, NC,, NC
CH3-4,2017-01-31T01:30:00Z,-79.11,54.05,1.20,2.31,,-0.46,,, NC,, NC
CH3-4,2017-01-31T01:45:00Z,-79.11,54.05,1.20,2.33,,-0.46,,, NC,, NC
CH3-4,2017-01-31T02:00:00Z,-79.11,54.05,1.20,2.34,,-0.46,,, NC,, NC
CH3-4,2017-01-31T02:15:00Z,-79.11,54.05,1.20,2.35,,-0.46,,, NC,, NC
CH3-4,2017-01-31T02:30:00Z,-79.11,54.05,1.20,2.35,,-0.46,,, NC,, NC
CH3-4,2017-01-31T02:45:00Z,-79.11,54.05,1.20,2.36,,-0.46,,, NC,, NC
CH3-4,2017-01-31T03:00:00Z,-79.11,54.05,1.20,2.34,,-0.47,,, NC,, NC
CH3-4,2017-01-31T03:15:00Z,-79.11,54.05,1.20,2.32,,-0.46,,, NC,, NC
CH3-4,2017-01-31T03:30:00Z,-79.11,54.05,1.20,2.30,,-0.45,,, NC,, NC
CH3-4,2017-01-31T03:45:00Z,-79.11,54.05,1.20,2.29,,-0.46,,, NC,, NC
CH3-4,2017-01-31T04:00:00Z,-79.11,54.05,1.20,2.29,,-0.46,,, NC,, NC
CH3-4,2017-01-31T04:15:00Z,-79.11,54.05,1.20,2.28,,-0.46,,, NC,, NC
CH3-4,2017-01-31T04:30:00Z,-79.11,54.05,1.20,2.29,,-0.46,,, NC,, NC
CH3-4,2017-01-31T04:45:00Z,-79.11,54.05,1.20,2.29,,-0.46,,, NC,, NC
CH3-4,2017-01-31T05:00:00Z,-79.11,54.05,1.20,2.30,,-0.46,,, NC,, NC
CH3-4,2017-01-31T05:15:00Z,-79.11,54.05,1.20,2.30,,-0.46,,, NC,, NC
CH3-4,2017-01-31T05:30:00Z,-79.11,54.05,1.20,2.32,,-0.46,,, NC,, NC
CH3-4,2017-01-31T05:45:00Z,-79.11,54.05,1.20,2.34,,-0.45,,, NC,, NC
CH3-4,2017-01-31T06:00:00Z,-79.11,54.05,1.20,2.35,,-0.46,,, NC,, NC
CH3-4,2017-01-31T06:15:00Z,-79.11,54.05,1.20,2.35,,-0.46,,, NC,, NC
CH3-4,2017-01-31T06:30:00Z,-79.11,54.05,1.20,2.36,,-0.45,,, NC,, NC
CH3-4,2017-01-31T06:45:00Z,-79.11,54.05,1.20,2.37,,-0.46,,, NC,, NC
CH3-4,2017-01-31T07:00:00Z,-79.11,54.05,1.20,2.38,,-0.46,,, NC,, NC
CH3-4,2017-01-31T07:15:00Z,-79.11,54.05,1.20,2.40,,-0.44,,, NC,, NC
CH3-4,2017-01-31T07:30:00Z,-79.11,54.05,1.20,2.42,,-0.44,,, NC,, NC
CH3-4,2017-01-31T07:45:00Z,-79.11,54.05,1.20,2.44,,-0.45,,, NC,, NC
CH3-4,2017-01-31T08:00:00Z,-79.11,54.05,1.20,2.44,,-0.42,,, NC,, NC
CH3-4,2017-01-31T08:15:00Z,-79.11,54.05,1.20,2.44,,-0.42,,, NC,, NC
CH3-4,2017-01-31T08:30:00Z,-79.11,54.05,1.20,2.45,,-0.42,,, NC,, NC
CH3-4,2017-01-31T08:45:00Z,-79.11,54.05,1.20,2.47,,-0.40,,, NC,, NC
CH3-4,2017-01-31T09:00:00Z,-79.11,54.05,1.20,2.47,,-0.41,,, NC,, NC
CH3-4,2017-01-31T09:15:00Z,-79.11,54.05,1.20,2.48,,-0.40,,, NC,, NC
CH3-4,2017-01-31T09:30:00Z,-79.11,54.05,1.20,2.48,,-0.40,,, NC,, NC
CH3-4,2017-01-31T09:45:00Z,-79.11,54.05,1.20,2.47,,-0.40,,, NC,, NC
CH3-4,2017-01-31T10:00:00Z,-79.11,54.05,1.20,2.45,,-0.40,,, NC,, NC
CH3-4,2017-01-31T10:15:00Z,-79.11,54.05,1.20,2.43,,-0.42,,, NC,, NC
CH3-4,2017-01-31T10:30:00Z,-79.11,54.05,1.20,2.42,,-0.42,,, NC,, NC
CH3-4,2017-01-31T10:45:00Z,-79.11,54.05,1.20,2.39,,-0.42,,, NC,, NC
CH3-4,2017-01-31T11:00:00Z,-79.11,54.05,1.20,2.38,,-0.44,,, NC,, NC
CH3-4,2017-01-31T11:15:00Z,-79.11,54.05,1.20,2.56,,-0.38,,, NC,, NC
CH3-4,2017-01-31T11:30:00Z,-79.11,54.05,1.20,2.62,,-0.40,,, NC,, NC
CH3-4,2017-01-31T11:45:00Z,-79.11,54.05,1.20,2.64,,-0.42,,, NC,, NC
CH3-4,2017-01-31T12:00:00Z,-79.11,54.05,1.20,2.60,,-0.45,,, NC,, NC
CH3-4,2017-01-31T12:15:00Z,-79.11,54.05,1.20,2.43,,-0.42,,, NC,, NC
CH3-4,2017-01-31T12:30:00Z,-79.11,54.05,1.20,2.31,,-0.46,,, NC,, NC
CH3-4,2017-01-31T12:45:00Z,-79.11,54.05,1.20,2.32,,-0.46,,, NC,, NC
CH3-4,2017-01-31T13:00:00Z,-79.11,54.05,1.20,2.37,,-0.47,,, NC,, NC
CH3-4,2017-01-31T13:15:00Z,-79.11,54.05,1.20,2.36,,-0.47,,, NC,, NC
CH3-4,2017-01-31T13:30:00Z,-79.11,54.05,1.20,2.35,,-0.46,,, NC,, NC
CH3-4,2017-01-31T13:45:00Z,-79.11,54.05,1.20,2.37,,-0.47,,, NC,, NC
CH3-4,2017-01-31T14:00:00Z,-79.11,54.05,1.20,2.38,,-0.47,,, NC,, NC
CH3-4,2017-01-31T14:15:00Z,-79.11,54.05,1.20,2.37,,-0.47,,, NC,, NC
CH3-4,2017-01-31T14:30:00Z,-79.11,54.05,1.20,2.39,,-0.47,,, NC,, NC
CH3-4,2017-01-31T14:45:00Z,-79.11,54.05,1.20,2.38,,-0.46,,, NC,, NC
CH3-4,2017-01-31T15:00:00Z,-79.11,54.05,1.20,2.39,,-0.46,,, NC,, NC
CH3-4,2017-01-31T15:15:00Z,-79.11,54.05,1.20,2.37,,-0.47,,, NC,, NC
CH3-4,2017-01-31T15:30:00Z,-79.11,54.05,1.20,2.37,,-0.47,,, NC,, NC
CH3-4,2017-01-31T15:45:00Z,-79.11,54.05,1.20,2.37,,-0.46,,, NC,, NC
CH3-4,2017-01-31T16:00:00Z,-79.11,54.05,1.20,2.36,,-0.46,,, NC,, NC
CH3-4,2017-01-31T16:15:00Z,-79.11,54.05,1.20,2.35,,-0.47,,, NC,, NC
CH3-4,2017-01-31T16:30:00Z,-79.11,54.05,1.20,2.34,,-0.46,,, NC,, NC
CH3-4,2017-01-31T16:45:00Z,-79.11,54.05,1.20,2.34,,-0.46,,, NC,, NC
CH3-4,2017-01-31T17:00:00Z,-79.11,54.05,1.20,2.34,,-0.46,,, NC,, NC
CH3-4,2017-01-31T17:15:00Z,-79.11,54.05,1.20,2.35,,-0.46,,, NC,, NC
CH3-4,2017-01-31T17:30:00Z,-79.11,54.05,1.20,2.36,,-0.46,,, NC,, NC
CH3-4,2017-01-31T17:45:00Z,-79.11,54.05,1.20,2.37,,-0.47,,, NC,, NC
CH3-4,2017-01-31T18:00:00Z,-79.11,54.05,1.20,2.38,,-0.46,,, NC,, NC
CH3-4,2017-01-31T18:15:00Z,-79.11,54.05,1.20,2.39,,-0.46,,, NC,, NC
CH3-4,2017-01-31T18:30:00Z,-79.11,54.05,1.20,2.39,,-0.46,,, NC,, NC
CH3-4,2017-01-31T18:45:00Z,-79.11,54.05,1.20,2.40,,-0.47,,, NC,, NC
CH3-4,2017-01-31T19:00:00Z,-79.11,54.05,1.20,2.40,,-0.45,,, NC,, NC
CH3-4,2017-01-31T19:15:00Z,-79.11,54.05,1.20,2.43,,-0.46,,, NC,, NC
CH3-4,2017-01-31T19:30:00Z,-79.11,54.05,1.20,2.46,,-0.46,,, NC,, NC
CH3-4,2017-01-31T19:45:00Z,-79.11,54.05,1.20,2.47,,-0.45,,, NC,, NC
CH3-4,2017-01-31T20:00:00Z,-79.11,54.05,1.20,2.47,,-0.45,,, NC,, NC
CH3-4,2017-01-31T20:15:00Z,-79.11,54.05,1.20,2.47,,-0.44,,, NC,, NC
CH3-4,2017-01-31T20:30:00Z,-79.11,54.05,1.20,2.47,,-0.42,,, NC,, NC
CH3-4,2017-01-31T20:45:00Z,-79.11,54.05,1.20,2.48,,-0.42,,, NC,, NC
CH3-4,2017-01-31T21:00:00Z,-79.11,54.05,1.20,2.54,,-0.39,,, NC,, NC
CH3-4,2017-01-31T21:15:00Z,-79.11,54.05,1.20,2.60,,-0.34,,, NC,, NC
CH3-4,2017-01-31T21:30:00Z,-79.11,54.05,1.20,2.73,,-0.28,,, NC,, NC
CH3-4,2017-01-31T21:45:00Z,-79.11,54.05,1.20,2.63,,-0.33,,, NC,, NC
CH3-4,2017-01-31T22:00:00Z,-79.11,54.05,1.20,2.64,,-0.33,,, NC,, NC
CH3-4,2017-01-31T22:15:00Z,-79.11,54.05,1.20,2.64,,-0.35,,, NC,, NC
CH3-4,2017-01-31T22:30:00Z,-79.11,54.05,1.20,2.63,,-0.36,,, NC,, NC
CH3-4,2017-01-31T22:45:00Z,-79.11,54.05,1.20,2.61,,-0.38,,, NC,, NC
CH3-4,2017-01-31T23:00:00Z,-79.11,54.05,1.20,2.51,,-0.40,,, NC,, NC
CH3-4,2017-01-31T23:15:00Z,-79.11,54.05,1.20,2.49,,-0.39,,, NC,, NC
CH3-4,2017-01-31T23:30:00Z,-79.11,54.05,1.20,2.54,,-0.41,,, NC,, NC
CH3-4,2017-01-31T23:45:00Z,-79.11,54.05,1.20,2.60,,-0.40,,, NC,, NC
CH3-4,2017-02-01T00:00:00Z,-79.11,54.05,1.20,2.63,,-0.44,,, NC,, NC
CH3-4,2017-02-01T00:15:00Z,-79.11,54.05,1.20,2.64,,-0.44,,, NC,, NC
CH3-4,2017-02-01T00:30:00Z,-79.11,54.05,1.20,2.57,,-0.45,,, NC,, NC
CH3-4,2017-02-01T00:45:00Z,-79.11,54.05,1.20,2.46,,-0.46,,, NC,, NC
CH3-4,2017-02-01T01:00:00Z,-79.11,54.05,1.20,2.46,,-0.46,,, NC,, NC
CH3-4,2017-02-01T01:15:00Z,-79.11,54.05,1.20,2.41,,-0.46,,, NC,, NC
CH3-4,2017-02-01T01:30:00Z,-79.11,54.05,1.20,2.39,,-0.47,,, NC,, NC
CH3-4,2017-02-01T01:45:00Z,-79.11,54.05,1.20,2.38,,-0.47,,, NC,, NC
CH3-4,2017-02-01T02:00:00Z,-79.11,54.05,1.20,2.38,,-0.47,,, NC,, NC
CH3-4,2017-02-01T02:15:00Z,-79.11,54.05,1.20,2.41,,-0.46,,, NC,, NC
CH3-4,2017-02-01T02:30:00Z,-79.11,54.05,1.20,2.40,,-0.47,,, NC,, NC
CH3-4,2017-02-01T02:45:00Z,-79.11,54.05,1.20,2.39,,-0.46,,, NC,, NC
CH3-4,2017-02-01T03:00:00Z,-79.11,54.05,1.20,2.42,,-0.47,,, NC,, NC
CH3-4,2017-02-01T03:15:00Z,-79.11,54.05,1.20,2.42,,-0.47,,, NC,, NC
CH3-4,2017-02-01T03:30:00Z,-79.11,54.05,1.20,2.40,,-0.47,,, NC,, NC
CH3-4,2017-02-01T03:45:00Z,-79.11,54.05,1.20,2.39,,-0.47,,, NC,, NC
CH3-4,2017-02-01T04:00:00Z,-79.11,54.05,1.20,2.40,,-0.47,,, NC,, NC
CH3-4,2017-02-01T04:15:00Z,-79.11,54.05,1.20,2.40,,-0.48,,, NC,, NC
CH3-4,2017-02-01T04:30:00Z,-79.11,54.05,1.20,2.39,,-0.46,,, NC,, NC
CH3-4,2017-02-01T04:45:00Z,-79.11,54.05,1.20,2.39,,-0.46,,, NC,, NC
CH3-4,2017-02-01T05:00:00Z,-79.11,54.05,1.20,2.38,,-0.46,,, NC,, NC
CH3-4,2017-02-01T05:15:00Z,-79.11,54.05,1.20,2.39,,-0.47,,, NC,, NC
CH3-4,2017-02-01T05:30:00Z,-79.11,54.05,1.20,2.40,,-0.47,,, NC,, NC
CH3-4,2017-02-01T05:45:00Z,-79.11,54.05,1.20,2.40,,-0.46,,, NC,, NC
CH3-4,2017-02-01T06:00:00Z,-79.11,54.05,1.20,2.41,,-0.47,,, NC,, NC
CH3-4,2017-02-01T06:15:00Z,-79.11,54.05,1.20,2.41,,-0.47,,, NC,, NC
CH3-4,2017-02-01T06:30:00Z,-79.11,54.05,1.20,2.41,,-0.47,,, NC,, NC
CH3-4,2017-02-01T06:45:00Z,-79.11,54.05,1.20,2.41,,-0.46,,, NC,, NC
CH3-4,2017-02-01T07:00:00Z,-79.11,54.05,1.20,2.42,,-0.47,,, NC,, NC
CH3-4,2017-02-01T07:15:00Z,-79.11,54.05,1.20,2.43,,-0.46,,, NC,, NC
CH3-4,2017-02-01T07:30:00Z,-79.11,54.05,1.20,2.44,,-0.45,,, NC,, NC
CH3-4,2017-02-01T07:45:00Z,-79.11,54.05,1.20,2.45,,-0.45,,, NC,, NC
CH3-4,2017-02-01T08:00:00Z,-79.11,54.05,1.20,2.48,,-0.46,,, NC,, NC
CH3-4,2017-02-01T08:15:00Z,-79.11,54.05,1.20,2.48,,-0.45,,, NC,, NC
CH3-4,2017-02-01T08:30:00Z,-79.11,54.05,1.20,2.50,,-0.44,,, NC,, NC
CH3-4,2017-02-01T08:45:00Z,-79.11,54.05,1.20,2.52,,-0.42,,, NC,, NC
CH3-4,2017-02-01T09:00:00Z,-79.11,54.05,1.20,2.51,,-0.40,,, NC,, NC
CH3-4,2017-02-01T09:15:00Z,-79.11,54.05,1.20,2.52,,-0.42,,, NC,, NC
CH3-4,2017-02-01T09:30:00Z,-79.11,54.05,1.20,2.55,,-0.41,,, NC,, NC
CH3-4,2017-02-01T09:45:00Z,-79.11,54.05,1.20,2.55,,-0.41,,, NC,, NC
CH3-4,2017-02-01T10:00:00Z,-79.11,54.05,1.20,2.54,,-0.44,,, NC,, NC
CH3-4,2017-02-01T10:15:00Z,-79.11,54.05,1.20,2.54,,-0.42,,, NC,, NC
CH3-4,2017-02-01T10:30:00Z,-79.11,54.05,1.20,2.52,,-0.41,,, NC,, NC
CH3-4,2017-02-01T10:45:00Z,-79.11,54.05,1.20,2.53,,-0.42,,, NC,, NC
CH3-4,2017-02-01T11:00:00Z,-79.11,54.05,1.20,2.52,,-0.42,,, NC,, NC
CH3-4,2017-02-01T11:15:00Z,-79.11,54.05,1.20,2.46,,-0.45,,, NC,, NC
CH3-4,2017-02-01T11:30:00Z,-79.11,54.05,1.20,2.49,,-0.44,,, NC,, NC
CH3-4,2017-02-01T11:45:00Z,-79.11,54.05,1.20,2.62,,-0.40,,, NC,, NC
CH3-4,2017-02-01T12:00:00Z,-79.11,54.05,1.20,2.65,,-0.42,,, NC,, NC
CH3-4,2017-02-01T12:15:00Z,-79.11,54.05,1.20,2.66,,-0.45,,, NC,, NC
CH3-4,2017-02-01T12:30:00Z,-79.11,54.05,1.20,2.49,,-0.44,,, NC,, NC
CH3-4,2017-02-01T12:45:00Z,-79.11,54.05,1.20,2.42,,-0.47,,, NC,, NC
CH3-4,2017-02-01T13:00:00Z,-79.11,54.05,1.20,2.43,,-0.46,,, NC,, NC
CH3-4,2017-02-01T13:15:00Z,-79.11,54.05,1.20,2.39,,-0.46,,, NC,, NC